Location: Newark
(22.3060°N, 114.2134°E)
Time: 07:47:09
(UTC+00:00)

Vanguard 2 - Pass Details

Date: 03 August 2021
Orbit: 553 x 2937 km, 32.9° (Epoch: 24 September)

Event Time Altitude Azimuth Distance (km) Brightness Sun altitude
Rises 03:07:52 0° 286° (WNW) 4,009 11.0 70.3°
Reaches altitude 10° 03:10:20 10° 279° (W) 3,305 10.7 70.8°
Maximum altitude 03:18:31 45° 209° (SSW) 2,309 10.6 72.7°
Drops below altitude 10° 03:31:37 10° 143° (SE) 5,170 12.1 75.6°
Sets 03:36:35 0° 137° (SE) 6,453 12.4 76.7°
